Regional Weather Roundup
Issued by NWS Cleveland, OH

Home | Current Version | Previous Version | Graphics & Text | Print | Product List | Glossary On
Versions: 1 2 3 4 5 6 7 8 9 10 11 12 13 14 15 16 17 18 19 20 21 22 23 24 25 26 27 28 29 30 31 32 33 34 35 36 37 38 39 40 41 42 43 44 45 46 47 48 49 50
000
ASUS41 KCLE 220600
RWRCLE
OHIO REGIONAL WEATHER ROUNDUP
NATIONAL WEATHER SERVICE WILMINGTON, OH
100 AM EST THU FEB 22 2018

NOTE: "FAIR" INDICATES FEW OR NO CLOUDS BELOW 12,000 FEET WITH NO
SIGNIFICANT WEATHER AND/OR OBSTRUCTIONS TO VISIBILITY.

OHZ001>008-015>018-024>027-034-035-043-044-220700-
   NORTHWEST OHIO

CITY           SKY/WX    TMP DP  RH WIND       PRES   REMARKS
DEFIANCE       CLOUDY    35  31  85 NE12      30.59R WCI  27
FINDLAY        LGT RAIN  36  27  69 NE13      30.55F
TOLEDO EXPRESS FAIR      34  31  88 NE9       30.60S WCI  27
TOLEDO EXEC    FAIR      33  29  85 NE10G18   30.62S WCI  25
LIMA           LGT RAIN  34  31  88 NE9       30.53F WCI  27
$$

OHZ009>014-019>023-028>033-038-089-220700-
   NORTHEAST OHIO

CITY           SKY/WX    TMP DP  RH WIND       PRES   REMARKS
CLE-HOPKINS    CLOUDY    33  29  85 NE13      30.61F WCI  24
CLE-LAKEFRONT  CLOUDY    33  28  81 NE15      30.60F WCI  23
CUY CO. ARPT   NOT AVBL
LORAIN-ELYRIA  CLOUDY    32  25  75 NE15      30.60F WCI  22
ASHTABULA      CLOUDY    33  29  85 N6        30.60R WCI  28
AKRON-CANTON   RAIN      34  30  85 N10       30.54R WCI  26
WOOSTER        NOT AVBL
MANSFIELD      CLOUDY    32  30  92 N8        30.55S WCI  25
YOUNGSTOWN     LGTSLEET  34  31  88 N8        30.55S WCI  27
$$

OHZ042-051>053-060>062-070>072-077>081-220700-
  SOUTHWEST OHIO

CITY           SKY/WX    TMP DP  RH WIND       PRES   REMARKS
CINC-COVINGTON LGT RAIN  43  43 100 NE17      30.42F
CINC-LUNKEN    LGT RAIN  43  42  97 N12       30.45S
HAMILTON       LGT RAIN  41  31  67 NE8       30.47F
DAYTON         NOT AVBL
WRIGHT-PAT AFB LGT RAIN  38  34  88 NE12      30.49F
DAYTON GENERAL LGT RAIN  39  36  89 NE15      30.46F
WILMINGTON     LGT RAIN  38  38 100 NE18G25   30.43F
$$

OHZ036-037-039>041-045>050-054>059-063>069-073>076-082>088-220700-
  CENTRAL AND SOUTHEAST OHIO

CITY           SKY/WX    TMP DP  RH WIND       PRES   REMARKS
COLUMBUS       LGT RAIN  38  36  92 N10       30.51R
OSU AIRPORT    LGT RAIN  36  35  96 N13       30.52R
BOLTON FIELD   LGT RAIN  37  35  94 N14       30.50F
RICKENBACK AFB NOT AVBL
NEWARK         LGT RAIN  38  34  85 NE7       30.49F
MARION         MIX PCPN  34  30  85 NE14      30.54F WCI  25
LANCASTER      CLOUDY    40  35  83 NE7       30.49S
ZANESVILLE     CLOUDY    40  35  83 NE8       30.49F
NEW PHILLY     CLOUDY    37  33  85 N9        30.53F
$$




USA.gov is the U.S. government's official web portal to all federal, state and local government web resources and services.